METEOR 2-5 DEB, 40215

Orbit data source: Space-Track

METEOR 2-5 DEB, 40215 is space debris in LEO originally from a launch on Wed, 31 Oct 1979 UTC launched from the Plesetsk Missile And Space Complex (PKMTR). Debris objects in space refer to the collection of defunct objects orbiting the Earth. Examples of debris include non-operational satellites, rocket bodies, and fragments generated from explosions, collisions, or faulty payload assembly.

Loading next visibility...
METEOR 2-5 DEB details
Identifier
40215, 1979-095CN
Orbit
LEO
Last TLE update3 months ago
Origin
Flag of CISKVR (CIS)
ManufacturerUnknown
MissionSpacecraft
Bus & MotorUnknown
MassUnknown
Launch date (UTC)
1979-10-31 (45 years ago)
Launch vehicleUnknown
Launch site
Plesetsk Missile And Space Complex (PKMTR)
Object type
Payload
Rocket body
Debris
Shape & HBRUnknown
Radar Cross SectionSmall (<0.1 m²)

Expand to show TLE details & history

TLE from 3 months ago
0 METEOR 2-5 DEB
1 40215U 79095CN  24261.25870918  .00049394  00000-0  20643-1 0  9992
2 40215  81.1923  81.4837 0007047 247.7782 112.2650 14.25800139515555
Epoch: 2024-09-17T06:12Z
Definitive object data (Epoch: 2024-09-17T06:12:32.473Z)
Latitude-0.00002°
Longitude-8.32755°
Altitude810.645 km
Speed7.447 km/s
True Right ascension05h 25m 56s
True Declination0° 00' 00"
Sunlit
Object was in daylight at TLE epoch
Visualization TLE readout
Latitude-3.94388°
Longitude-88.65714°
Altitude776.531 km
Speed7.468 km/s
Apparent Right ascension22h 34m 32s
Apparent Declination-60° 59' 29"
Sunlit
Object is in full shadow
Visualization observer readout
Local Sidereal Time00:50:13
Azimuth196.24° SSW
Elevation-14.626°
Doppler factor1
Orbital elements
Apogee altitude808.02 km
Perigee altitude797.899 km
Semi-major axis7,181.096 km
Eccentricity0.0007047
Inclination81.1923°
RAAN81.4837°
Arg. of periapsis247.7782°
True anomaly112.33971°
Mean anomaly112.265°
Eccentric anomaly112.30236°
Mean motion3.56662 °/min
BSTAR0.020643
Orbital period100.94 mins
Loading maneuver chart data...

METEOR 2-5 DEB Visibility forecast

Observer location: undefined°, undefined

Span
Click to sort rows by Start time (UTC) header in descending order
Start Az.
Max El. time (UTC)
Max El. Az.
Max El.
End time (UTC)
End Az.
9 mins2024-12-05 03:01:04.196Z208.215° SW2024-12-05 03:06:04.196Z298.534° NW37.354°2024-12-05 03:10:04.196Z356.528° N
8 mins2024-12-05 13:32:04.196Z351.403° N2024-12-05 13:36:04.196Z162.571° S44.649°2024-12-05 13:40:04.196Z171.471° S
8 mins2024-12-06 02:28:04.196Z188.007° SSW2024-12-06 02:32:04.196Z7.272° NNE44.729°2024-12-06 02:36:04.196Z9.165° NNE
|